Location: Roanoke
(37.2710°N, 79.9420°W)
Time: 23:18:15
(UTC-05:00)

Courier 1B Rocket - Pass Details

Date: 18 November 2019
Orbit: 920 x 1202 km, 28.2° (Epoch: 05 December)

Event Time Altitude Azimuth Distance (km) Brightness Sun altitude
Rises 15:45:22 0° 239° (WSW) 3,817 10.1 13.3°
Reaches altitude 10° 15:48:15 10° 230° (SW) 2,908 10.9 12.8°
Maximum altitude 15:54:40 36° 167° (SSE) 1,718 6.7 11.8°
Drops below altitude 10° 16:01:27 10° 105° (ESE) 3,078 7.3 10.7°
Sets 16:04:35 0° 97° (E) 4,067 7.8 10.2°
